Regional Weather Roundup
Issued by NWS

Home | Current Version | Previous Version | Graphics & Text | Print | Product List | Glossary On
Versions: 1 2 3 4 5 6 7 8 9 10 11 12 13 14 15 16 17 18 19 20 21 22 23 24 25 26 27 28 29 30 31 32 33 34 35 36 37 38 39 40 41 42 43 44 45 46 47 48 49 50
000
ASUS45 KABQ 250501
RWRNM
WEATHER ROUNDUP FOR NEW MEXICO
NATIONAL WEATHER SERVICE ALBUQUERQUE NM
1000 PM MST SAT JAN 24 2015

NOTE: "FAIR" MEANS FEW OR NO CLOUDS BELOW 12,000 FEET AGL WITH NO
       SIGNIFICANT WEATHER OR OBSTRUCTIONS TO VISION.

      THIS PRODUCT IS RELEASED AS TWO VERSIONS.  ONE VERSION NEAR
      THE TOP OF THE HOUR CONTAINING PRELIMINARY DATA FROM ALBUQUERQUE
      AND OTHER STATIONS.  A FINAL VERSION WITH ADDITIONAL DATA IS
      ISSUED ABOUT 10 MINUTES AFTER THE HOUR.

NMZ501-503-504-510>518-250600-
NORTHWEST PLATEAU/NORTHCENTRAL MOUNTAINS

CITY           SKY/WX    TMP DP  RH WIND       PRES   REMARKS
FARMINGTON     CLEAR     25  14  63 NE5       30.25S WCI  19
SANTA FE       PTCLDY    34  19  54 N15       30.20S WCI  24
TAOS           MOCLDY    25  18  74 NW10      30.24F WCI  15

$$
NMZ402-403-502-505>509-250600-
WESTCENTRAL MOUNTAINS/SOUTHWEST MOUNTAINS

CITY           SKY/WX    TMP DP  RH WIND       PRES   REMARKS
GALLUP         CLEAR     27  21  78 CALM      30.28F
SILVER CITY    PTCLDY    32  16  51 N12       30.25R WCI  23

$$
NMZ407-409-411-412-250600-
SOUTHERN DESERTS

CITY           SKY/WX    TMP DP  RH WIND       PRES   REMARKS
DEMING         MOCLDY    34  23  64 W3        30.23R
HOLLOMAN AFB   PTCLDY    33  26  75 VRB2      30.20R
ALAMOGORDO     PTCLDY    37  27  65 N12       30.20S WCI  30
T OR C         CLEAR     32  21  64 W5        30.22R WCI  27

$$
NMZ519>523-250600-
CENTRAL VALLEYS/CENTRAL HIGHLANDS

CITY           SKY/WX    TMP DP  RH WIND       PRES   REMARKS
ALBUQUERQUE    PTCLDY    39  19  44 NE5       30.24S
DOUBLE EAGLE   PTCLDY    34  19  52 NW9       30.24R WCI  27
CLINES CORNERS PTCLDY    33  19  56 NW21      30.16S WCI  21
BELEN          FAIR      29  22  74 CALM      30.25R
SOCORRO        NOT AVBL

$$
NMZ524>526-539-540-250600-
SOUTHCENTRAL MOUNTAINS

CITY           SKY/WX    TMP DP  RH WIND       PRES   REMARKS
RUIDOSO        NOT AVBL

$$
NMZ527>531-250600-
NORTHEAST HIGHLANDS/NORTHEAST PLAINS

CITY           SKY/WX    TMP DP  RH WIND       PRES   REMARKS
LAS VEGAS      MOCLDY    38  17  42 N13       30.12R WCI  30
RATON          CLOUDY    39  19  44 NW8       30.10R WCI  33
CLAYTON        PTCLDY    41  23  48 NW15      30.07R

$$
NMZ532>537-250600-
EASTCENTRAL PLAINS

CITY           SKY/WX    TMP DP  RH WIND       PRES   REMARKS
TUCUMCARI      MOCLDY    34  27  75 NW7       30.04R WCI  28
CANNON AFB     PTCLDY    37  27  68 W10       30.04R WCI  29
CLOVIS AIRPORT CLEAR     34  27  75 W13       30.04R WCI  25

$$
NMZ028-029-538-250600-
SOUTHEAST PLAINS

CITY           SKY/WX    TMP DP  RH WIND       PRES   REMARKS
ROSWELL        PTCLDY    29  28  96 CALM      30.08S
ARTESIA        PTCLDY    41  30  65 W15       30.09R
CARLSBAD       MOCLDY    45  23  42 N8        30.07R
HOBBS          PTCLDY    36  28  75 W7        30.09R WCI  30


$$



USA.gov is the U.S. government's official web portal to all federal, state and local government web resources and services.